Lexington Weather

Lexington, Massachusetts, USA

34°F
10/30/2020 7:12am 
  • Lexington Conditions: Light snow, Mist, Overcast
  • Temperature: 33.8°F / 1.0°CColder 1.1°F than last hour.
  • Dew Point: 33.1°FDecreased 1.1°Fsince last hour.
  • Relative Humidity: 97
  • Wind: Wind from NE NE 2 mph, 10-min avg: 2 mph, gust: 4 mph
  • Barometer: 29.77 inRising 0.02  inHg/hr Rising Slowly
  • Visibility: 3 miles
  • Rain Today: 0.09 in
  •   
Southeast Middlesex County - Winter Weather Advisory
 - SEE ALL NEARBY ALERTS -

Regional Weather Roundup
for Boston / Norton, MA

        
000
ASUS41 KBOX 231904
RWRBOX

REGIONAL WEATHER ROUNDUP
NATIONAL WEATHER SERVICE BOSTON/NORTON MA
300 PM EDT FRI OCT 23 2020

NOTE:  "FAIR" INDICATES FEW OR NO CLOUDS BELOW 12,000 FEET WITH NO 
SIGNIFICANT WEATHER AND/OR OBSTRUCTIONS TO VISIBILITY.

MAZALL-232000-
EASTERN MASSACHUSETTS
  
CITY           SKY/WX    TMP DP  RH WIND       PRES   REMARKS
BOSTON         PTSUNNY   60  54  80 E10       30.19F                  
BEVERLY        CLOUDY    63  50  62 SE8       30.17F                  
LAWRENCE       CLOUDY    68  51  54 VRB3      30.18F                  
BEDFORD        PTSUNNY   67  57  70 S9        30.16S                  
BLUE HILL        N/A     65  55  70 NE7       30.17F                  
NORWOOD        CLOUDY    69  56  62 E6        30.16F                  
MARSHFIELD     SUNNY     63  55  77 NE9       30.18F                  
PLYMOUTH       SUNNY     65  54  67 NE9       30.17F                  
TAUNTON        SUNNY     73  57  57 VRB3      30.16F                  
NEW BEDFORD    SUNNY     71  52  50 SE7       30.16F                  
$$

MAZALL-232000-
CAPE COD AND THE ISLANDS
  
CITY           SKY/WX    TMP DP  RH WIND       PRES   REMARKS
FALMOUTH       SUNNY     68  46  45 SW6       30.18                   
HYANNIS        SUNNY     67  56  67 N9        30.16F                  
CHATHAM        SUNNY     63  54  72 E8        30.19F                  
PROVINCETOWN   SUNNY     62  55  77 NE10      30.19F                  
NANTUCKET      SUNNY     64  53  67 NE12      30.17F                  
MARTHAS VNYRD  SUNNY     68  49  50 E7        30.17F                  
$$
 
MAZALL-232000-
CENTRAL AND WESTERN MASSACHUSETTS
  
CITY           SKY/WX    TMP DP  RH WIND       PRES   REMARKS
WORCESTER      CLOUDY    65  57  75 SW8       30.17F                  
FITCHBURG      CLOUDY    66  57  72 SE7       30.17F                  
ORANGE         CLOUDY    66  60  81 S10       30.15F                  
SPRINGFIELD    CLOUDY    66  60  80 S7        30.13F                  
WESTFIELD      CLOUDY    68  61  78 S13       30.14F                  
NORTH ADAMS    MOSUNNY   75  58  55 MISG      30.09F                  
PITTSFIELD     SUNNY     71  58  63 S9G22     30.10                   
$$
 
RIZALL-232000-
RHODE ISLAND
  
CITY           SKY/WX    TMP DP  RH WIND       PRES   REMARKS
PROVIDENCE     SUNNY     65  57  75 CALM      30.18F                  
NEWPORT        SUNNY     65  57  75 NW3       30.17F                  
BLOCK ISLAND   CLOUDY    60  56  86 N3        30.19F                  
SMITHFIELD     SUNNY     67  59  75 SE8         N/A                   
WESTERLY       CLOUDY    63  56  78 N3        30.18F                  
$$
 
CTZALL-232000-
CONNECTICUT
  
CITY           SKY/WX    TMP DP  RH WIND       PRES   REMARKS
BRADLEY INTL   PTSUNNY   67  60  78 S8        30.14F                  
HARTFORD       PTSUNNY   66  59  78 S8        30.15F                  
BRIDGEPORT     CLOUDY    64  61  90 E8        30.16F                  
DANBURY        CLOUDY    64  61  90 SE7       30.16F                  
GROTON         PTSUNNY   62  57  83 S5        30.17F                  
NEW HAVEN      CLOUDY    65  61  87 E9        30.16F FOG              
CHESTER        CLOUDY    64  59  82 SE5       30.17F                  
MERIDEN        CLOUDY    64  58  80 SE5       30.16F                  
WILLIMANTIC    CLOUDY    64  59  83 S5        30.17F                  
OXFORD         CLOUDY    62  61  96 S8        30.17F                  
$$

MEZ002-015-021-024-NHZ003-005-008-011-012-014-VTZ005-008-232000-
NORTHERN NEW ENGLAND
  
CITY           SKY/WX    TMP DP  RH WIND       PRES   REMARKS
PORTLAND ME    CLOUDY    56  50  80 E9        30.21F                  
BANGOR ME      CLOUDY    59  47  64 S8        30.20F                  
CONCORD NH     CLOUDY    63  53  70 CALM      30.16F                  
MANCHESTER NH  CLOUDY    68  54  60 S7        30.15F                  
NASHUA NH      CLOUDY    67  59  75 VRB3      30.17F                  
PORTSMOUTH NH  CLOUDY    58  50  76 E8        30.18F                  
JAFFREY NH     CLOUDY    62  56  80 S8        30.16F                  
KEENE NH       CLOUDY    65  60  84 S6        30.14F                  
BURLINGTON VT  MOSUNNY   75  58  55 S20G32    29.99F                  
MT. WASHINGTON FOG       46  46 100 SW41G54     N/A  VSB 1/16         
$$

NYZ052-076-232000-
EASTERN NEW YORK
  
CITY           SKY/WX    TMP DP  RH WIND       PRES   REMARKS
ALBANY         MOSUNNY   72  58  61 S17G26    30.06F                  
NEW YORK CITY  PTSUNNY   70  60  70 S10       30.14F                  
$$
 
ANZALL-232000-
MARINE OBSERVATIONS
  
STATION/POSITION TIME  TEMP    WIND        PRES    VSBY  WAVE
                       AIR SEA DIR/SP/G                  HT/PER
                 (UTC) (F)     (DEG/KT/KT) (MB)    (MI)  (FT/S)
BOSTON BUOY      1850   59 60   80/ 10/ 10 1021.0          5/11
BUZZARDS BAY     1800           CALM  /  1 1023.2F
NANTUCKET SOUND  1850      62   90/ 10/ 12   N/A           1/ 4
MASS BAY-STELLWA 1804   60 58   70/  6/  8 1022.1F  1 7/8  2/ 5
ISLE OF SHOALS   1800   56      90/ 10/ 11 1022.2F
S OF BLOCK IS    1826      64                N/A           5/13
$$

......................KEY.........................
  SKY/WX - SKY CONDITION/PRESENT WEATHER
  TMP    - TEMPERATURE IN FAHRENHEIT
  DWPT   - DEWPOINT IN FAHRENHEIT
  RH     - RELATIVE HUMIDITY IN PERCENT
  WIND   - DIRECTION AND SPEED IN MPH
  PRES   - MEAN SEA LEVEL PRESSURE IN INCHES OF HG
  WCI    - WIND CHILL INDEX
  VSB    - VISIBILITY IN MILES
  HX     - HEAT INDEX
  TC     - TEMPERATURE IN CELSIUS
  VRB    - VARIABLE WIND DIRECTION
  N/A    - NOT AVAILABLE
  
      

Other recent Regional Weather Roundups

Fri Oct 30, 6:04am

Fri Oct 30, 5:04am

Fri Oct 30, 4:04am

Fri Oct 30, 3:04am

Fri Oct 30, 2:04am

Fri Oct 30, 1:04am

Fri Oct 30, 12:04am

Thu Oct 29, 11:04pm

Thu Oct 29, 10:04pm

Thu Oct 29, 9:04pm

Thu Oct 29, 8:04pm

Thu Oct 29, 7:04pm

Thu Oct 29, 6:04pm

Thu Oct 29, 5:05pm

Thu Oct 29, 4:05pm

Thu Oct 29, 3:05pm

Thu Oct 29, 2:04pm

Thu Oct 29, 1:04pm

Thu Oct 29, 12:04pm

Thu Oct 29, 11:04am

Thu Oct 29, 10:04am

Thu Oct 29, 9:04am

Thu Oct 29, 8:04am

Thu Oct 29, 7:04am

Thu Oct 29, 6:04am

Thu Oct 29, 5:04am

Thu Oct 29, 4:04am

Thu Oct 29, 3:04am

Thu Oct 29, 2:04am

Thu Oct 29, 1:05am

Thu Oct 29, 12:04am

Wed Oct 28, 11:05pm

Wed Oct 28, 10:04pm

Wed Oct 28, 9:04pm

Wed Oct 28, 8:04pm

Wed Oct 28, 7:05pm

Wed Oct 28, 6:04pm

Wed Oct 28, 5:05pm

Wed Oct 28, 4:04pm

Wed Oct 28, 3:04pm

Wed Oct 28, 2:04pm

Wed Oct 28, 1:05pm

Wed Oct 28, 12:05pm

Wed Oct 28, 11:05am

Wed Oct 28, 10:04am

Wed Oct 28, 9:04am

Wed Oct 28, 8:04am

Wed Oct 28, 7:04am

Wed Oct 28, 6:04am

Wed Oct 28, 5:05am

Wed Oct 28, 4:04am

Wed Oct 28, 3:04am

Wed Oct 28, 2:04am

Wed Oct 28, 1:05am

Wed Oct 28, 12:04am

Tue Oct 27, 11:04pm

Tue Oct 27, 10:04pm

Tue Oct 27, 9:05pm

Tue Oct 27, 8:04pm

Tue Oct 27, 7:04pm

Tue Oct 27, 6:04pm

Tue Oct 27, 5:04pm

Tue Oct 27, 4:05pm

Tue Oct 27, 3:04pm

Tue Oct 27, 2:04pm

Tue Oct 27, 1:04pm

Tue Oct 27, 12:04pm

Tue Oct 27, 11:04am

Tue Oct 27, 10:04am

Tue Oct 27, 9:04am

Tue Oct 27, 8:04am

Tue Oct 27, 7:04am

Tue Oct 27, 6:04am

Tue Oct 27, 5:04am

Tue Oct 27, 4:04am

Tue Oct 27, 3:04am

Tue Oct 27, 2:05am

Tue Oct 27, 1:04am

Tue Oct 27, 12:04am

Mon Oct 26, 11:05pm

Mon Oct 26, 10:04pm

Mon Oct 26, 9:04pm

Mon Oct 26, 8:04pm

Mon Oct 26, 7:04pm

Mon Oct 26, 6:04pm

Mon Oct 26, 5:04pm

Mon Oct 26, 4:05pm

Mon Oct 26, 2:04pm

Mon Oct 26, 1:04pm

Mon Oct 26, 12:04pm

Mon Oct 26, 11:05am

Mon Oct 26, 10:04am

Mon Oct 26, 9:04am

Mon Oct 26, 8:04am

Mon Oct 26, 7:04am

Mon Oct 26, 6:04am

Mon Oct 26, 5:04am

Mon Oct 26, 4:04am

Mon Oct 26, 3:04am

Mon Oct 26, 2:04am

Mon Oct 26, 1:04am

Mon Oct 26, 12:04am

Sun Oct 25, 11:05pm

Sun Oct 25, 10:04pm

Sun Oct 25, 9:04pm

Sun Oct 25, 8:04pm

Sun Oct 25, 7:04pm

Sun Oct 25, 6:04pm

Sun Oct 25, 5:04pm

Sun Oct 25, 4:05pm

Sun Oct 25, 3:04pm

Sun Oct 25, 2:04pm

Sun Oct 25, 1:04pm

Sun Oct 25, 12:04pm

Sun Oct 25, 11:04am

Sun Oct 25, 10:04am

Sun Oct 25, 9:04am

Sun Oct 25, 8:04am

Sun Oct 25, 7:04am

Sun Oct 25, 6:04am

Sun Oct 25, 5:04am

Sun Oct 25, 4:04am

Sun Oct 25, 3:04am

Sun Oct 25, 2:04am

Sun Oct 25, 1:05am

Sun Oct 25, 12:04am

Sat Oct 24, 11:04pm

Sat Oct 24, 10:04pm

Sat Oct 24, 9:04pm

Sat Oct 24, 8:04pm

Sat Oct 24, 7:04pm

Sat Oct 24, 6:04pm

Sat Oct 24, 5:05pm

Sat Oct 24, 4:04pm

Sat Oct 24, 3:04pm

Sat Oct 24, 2:04pm

Sat Oct 24, 1:05pm

Sat Oct 24, 12:04pm

Sat Oct 24, 11:05am

Sat Oct 24, 10:05am

Sat Oct 24, 9:04am

Sat Oct 24, 8:04am

Sat Oct 24, 7:04am

Sat Oct 24, 6:04am

Sat Oct 24, 5:04am

Sat Oct 24, 4:04am

Sat Oct 24, 3:04am

Sat Oct 24, 2:04am

Sat Oct 24, 1:05am

Sat Oct 24, 12:04am

Fri Oct 23, 11:04pm

Fri Oct 23, 10:04pm

Fri Oct 23, 9:04pm

Fri Oct 23, 8:05pm

Fri Oct 23, 7:04pm

Fri Oct 23, 6:04pm

Fri Oct 23, 5:05pm

Fri Oct 23, 4:04pm

Fri Oct 23, 2:05pm

Fri Oct 23, 1:04pm

Fri Oct 23, 12:04pm

Fri Oct 23, 11:04am

Fri Oct 23, 10:04am

Fri Oct 23, 9:04am

Fri Oct 23, 8:04am

Fri Oct 23, 7:04am

Meta data:

ID: 2d6c6540-9a87-4d8b-81d9-f758de509172
Link: https://api.weather.gov/products/2d6c6540-9a87-4d8b-81d9-f758de509172